Погода в Ваикале

Шри-Ланка     7°12′28″N   79°51′00″E
темп.,
°C
ветер,
м/с
пор.,
м/с
влажн.,
%
обл.,
%
осадки,
мм/ч
давл.,
гПа
погр.,
м
21 апреля, ср
ср2123:30+28юз4477100 4.2 1011412
02:30+28ююз3475100 0.5 1009594
05:30+28ю4475100 0.6 1010784
08:30+28ююз4473100 0.0 1012846
11:30+28ююз5575100 0.0 1012734
14:30+28юз557643 0.7 1009513
17:30+29юз777545 0.9 1009664
20:30+29ююз66755 0.0 1011762
22 апреля, чт
чт2223:30+28ююз657797 0.4 1011853
02:30+28юз3377100 4.3 1010247
05:30+28ююв337868 6.2 1011456
08:30+28ю34775 0.0 1013647
11:30+28юз4474100 0.0 1012658
14:30+28юз5577100 0.0 1010574
17:30+29юз667766 0.0 1009664
20:30+29юз667612 0.0 1011867
23 апреля, пт
пт2323:30+29юз667835 0.2 1011838
02:30+28юз667771 0.8 1009807
05:30+28юз557694 1.7 1010775
08:30+28юз557419 0.1 1012878
11:30+28юз45776 0.1 1011697
14:30+28юз457686 0.1 1009604
17:30+29зюз55745 0.1 1009681
20:30+29юз66765 0.0 1010693
24 апреля, сб
сб2423:30+29юз557732 0.3 1011786
02:30+28юз567785 0.3 1009814
05:30+28юз457777 0.6 1010746
08:30+29ююз447720 0.3 1011724
11:30+28юз557862 0.3 1011606
14:30+29юз76768 0.0 1008700
17:30+29юз667710 0.0 1008877
20:30+29юз777799 0.4 1010788
25 апреля, вс
вс2523:30+29юз667734 1.0 1011809
02:30+29юз557646 0.9 1009833
05:30+29юз5679100 1.3 1010736
08:30+29ююз567827 0.3 1012797
11:30+29юз667930 0.4 1011583
14:30+29юз77795 0.2 1008651
17:30+29юз77785 0.3 1008741
20:30+29ююз77785 0.0 1010864